Regional Weather Roundup
Issued by NWS Sioux Falls, SD

Home | Current Version | Previous Version | Graphics & Text | Print | Product List | Glossary Off
Versions: 1 2 3 4 5 6 7 8 9 10 11 12 13 14 15 16 17 18 19 20 21 22 23 24 25 26 27 28 29 30 31 32 33 34 35 36 37 38 39 40 41 42 43 44 45 46 47 48 49 50

000
ASUS43 KFSD 280902
RWRFSD

WEATHER ROUNDUP FOR SE SOUTH DAKOTA/SW MINNESOTA/NW IOWA
NATIONAL WEATHER SERVICE SIOUX FALLS SD
300 AM CST SAT FEB 28 2015

NOTE: "FAIR" INDICATES FEW OR NO CLOUDS BELOW 12,000 FEET WITH NO
SIGNIFICANT WEATHER AND OR OBSTRUCTIONS TO VISIBILITY.


SDZ038>040-050-052>070-281000-
SOUTHEAST SOUTH DAKOTA

CITY           SKY/WX    TMP DP  RH WIND       PRES   REMARKS
CHAMBERLAIN    NOT AVBL
HURON          CLEAR      6   0  76 S14       30.31F WCI -11
MADISON        FAIR       0   0 100 S10       30.33F WCI -17
MITCHELL       CLEAR      8   1  73 S13       30.35S WCI  -8
SIOUX FALLS    CLEAR      5  -2  72 S12       30.39F WCI -11
WINNER         FAIR      13  -1  54 S10       30.21S WCI   0
YANKTON        CLEAR      7   0  72 SE5       30.41F WCI  -2
$$

MNZ071-072-080-081-089-090-097-098-281000-
SOUTHWEST MINNESOTA

CITY           SKY/WX    TMP DP  RH WIND       PRES   REMARKS
FAIRMONT       CLEAR     -8 -13  77 S8        30.46F WCI -23
JACKSON        CLEAR      1  -6  71 S10       30.44F WCI -14
LUVERNE        CLEAR     -4  -8  84 CALM      30.42F
MARSHALL       CLEAR      3  -4  72 S14       30.41F WCI -15
MONTEVIDEO     CLEAR      0  -6  78 SW6       30.42F WCI -12
PIPESTONE      CLEAR     -2  -8  78 S7        30.36F WCI -16
REDWOOD FALLS  CLEAR     -3  -8  79 S9        30.46S WCI -19
TRACY          CLEAR      6  -1  74 S12       30.41F WCI -10
WINDOM         CLEAR      0  -6  78 S6        30.43F WCI -12
WORTHINGTON    PTCLDY    21 -11  23 S12       30.42F WCI   9
$$

IAZ001>003-012>014-020>022-031-032-NEZ013-014-SDZ071-281000-
NORTHWEST IOWA

CITY           SKY/WX    TMP DP  RH WIND       PRES   REMARKS
DENISON        CLEAR      5  -2  72 S9        30.47F WCI  -9
ESTHERVILLE    CLEAR    -10 -14  82 S10       30.46F WCI -29
SIOUX CITY     CLEAR      1  -4  79 E8        30.47F WCI -13
SPENCER        PTCLDY    -1  -7  75 S12       30.45F WCI -18
$$

ABBREVIATIONS USED IN REMARKS
   TC - TEMPERATURE IN CELSIUS
  WCI - WIND CHILL INDEX
   HX - HEAT INDEX
  VSB - VISIBILITY



USA.gov is the U.S. government's official web portal to all federal, state and local government web resources and services.